Time,TemperatureF,DewpointF,PressureIn,WindDirection,WindDirectionDegrees,WindSpeedMPH,WindSpeedGustMPH,Humidity,HourlyPrecipIn,Conditions,Clouds,dailyrainin,SoftwareType,DateUTC
2013-01-16 00:03:00,28.0,25.0,30.23,North,0,0.0,0.0,87,0.00,,,0.00,,2013-01-16 05:03:00,
2013-01-16 00:12:00,28.0,25.0,30.23,North,0,0.0,0.0,87,0.00,,,0.00,,2013-01-16 05:12:00,
2013-01-16 00:22:00,28.0,25.0,30.23,North,0,0.0,0.0,87,0.00,,,0.00,,2013-01-16 05:22:00,
2013-01-16 00:32:00,28.0,25.0,30.23,North,0,0.0,0.0,87,0.00,,,0.00,,2013-01-16 05:32:00,
2013-01-16 00:42:00,28.0,25.0,30.23,North,0,0.0,0.0,87,0.00,,,0.00,,2013-01-16 05:42:00,
2013-01-16 00:53:00,28.0,25.0,30.24,North,0,0.0,0.0,87,0.00,,,0.00,,2013-01-16 05:53:00,
2013-01-16 01:03:00,28.0,25.0,30.24,North,0,0.0,0.0,87,0.00,,,0.00,,2013-01-16 06:03:00,
2013-01-16 01:12:00,28.0,25.0,30.24,North,0,0.0,0.0,87,0.00,,,0.00,,2013-01-16 06:12:00,
2013-01-16 01:22:00,29.0,26.0,30.23,North,0,0.0,0.0,87,0.00,,,0.00,,2013-01-16 06:22:00,
2013-01-16 01:32:00,29.0,26.0,30.23,North,0,0.0,0.0,87,0.00,,,0.00,,2013-01-16 06:32:00,
2013-01-16 01:43:00,29.0,26.0,30.23,North,0,0.0,0.0,87,0.00,,,0.00,,2013-01-16 06:43:00,
2013-01-16 01:52:00,29.0,26.0,30.23,North,0,0.0,0.0,87,0.00,,,0.00,,2013-01-16 06:52:00,
2013-01-16 02:02:00,29.0,26.0,30.22,North,0,0.0,0.0,87,0.00,,,0.00,,2013-01-16 07:02:00,
2013-01-16 02:12:00,29.0,26.0,30.22,North,0,0.0,0.0,87,0.00,,,0.00,,2013-01-16 07:12:00,
2013-01-16 02:22:00,29.0,26.0,30.22,North,0,0.0,0.0,87,0.00,,,0.00,,2013-01-16 07:22:00,
2013-01-16 02:33:00,29.0,26.0,30.22,North,0,0.0,0.0,87,0.00,,,0.00,,2013-01-16 07:33:00,
2013-01-16 02:42:00,29.0,26.0,30.22,North,0,0.0,0.0,87,0.00,,,0.00,,2013-01-16 07:42:00,
2013-01-16 02:52:00,29.0,26.0,30.22,North,0,0.0,0.0,87,0.00,,,0.00,,2013-01-16 07:52:00,
2013-01-16 03:02:00,29.0,25.0,30.22,North,0,0.0,0.0,86,0.00,,,0.00,,2013-01-16 08:02:00,
2013-01-16 03:12:00,29.0,25.0,30.22,North,0,0.0,0.0,86,0.00,,,0.00,,2013-01-16 08:12:00,
2013-01-16 03:22:00,29.0,26.0,30.22,North,0,0.0,0.0,87,0.00,,,0.00,,2013-01-16 08:22:00,
2013-01-16 03:32:00,30.0,27.0,30.20,North,0,0.0,0.0,87,0.00,,,0.00,,2013-01-16 08:32:00,
2013-01-16 03:42:00,30.0,27.0,30.20,North,0,0.0,0.0,87,0.00,,,0.00,,2013-01-16 08:42:00,
2013-01-16 03:52:00,30.0,27.0,30.19,NNE,16,0.0,1.0,87,0.00,,,0.00,,2013-01-16 08:52:00,
2013-01-16 04:02:00,30.0,26.0,30.18,North,0,0.0,0.0,86,0.00,,,0.00,,2013-01-16 09:02:00,
2013-01-16 04:12:00,30.0,26.0,30.18,North,0,0.0,0.0,86,0.00,,,0.00,,2013-01-16 09:12:00,
2013-01-16 04:22:00,30.0,26.0,30.17,North,0,0.0,0.0,86,0.00,,,0.00,,2013-01-16 09:22:00,
2013-01-16 04:32:00,30.0,26.0,30.16,North,0,0.0,0.0,86,0.00,,,0.00,,2013-01-16 09:32:00,
2013-01-16 04:42:00,30.0,26.0,30.16,North,0,0.0,0.0,86,0.00,,,0.00,,2013-01-16 09:42:00,
2013-01-16 04:52:00,30.0,26.0,30.16,North,0,0.0,0.0,86,0.00,,,0.00,,2013-01-16 09:52:00,
2013-01-16 05:02:00,30.0,26.0,30.15,North,0,0.0,0.0,85,0.00,,,0.00,,2013-01-16 10:02:00,
2013-01-16 05:12:00,30.0,26.0,30.15,North,0,0.0,0.0,85,0.00,,,0.00,,2013-01-16 10:12:00,
2013-01-16 05:22:00,30.0,26.0,30.14,NNE,15,0.0,2.0,85,0.00,,,0.00,,2013-01-16 10:22:00,
2013-01-16 05:32:00,30.0,26.0,30.15,NNE,16,0.0,1.0,85,0.00,,,0.00,,2013-01-16 10:32:00,
2013-01-16 05:42:00,30.0,26.0,30.15,NNE,16,0.0,1.0,85,0.00,,,0.00,,2013-01-16 10:42:00,
2013-01-16 05:52:00,30.0,27.0,30.15,NNE,16,0.0,1.0,87,0.00,,,0.00,,2013-01-16 10:52:00,
2013-01-16 06:02:00,29.0,26.0,30.15,North,0,0.0,0.0,88,0.00,,,0.00,,2013-01-16 11:02:00,
2013-01-16 06:12:00,29.0,26.0,30.15,North,0,0.0,0.0,88,0.00,,,0.00,,2013-01-16 11:12:00,
2013-01-16 06:22:00,29.0,26.0,30.15,North,0,0.0,0.0,89,0.00,,,0.00,,2013-01-16 11:22:00,
2013-01-16 06:33:00,29.0,26.0,30.13,North,0,0.0,0.0,90,0.00,,,0.00,,2013-01-16 11:33:00,
2013-01-16 06:43:00,29.0,26.0,30.13,North,0,0.0,0.0,90,0.00,,,0.00,,2013-01-16 11:43:00,
2013-01-16 06:52:00,29.0,26.0,30.13,North,0,0.0,0.0,90,0.00,,,0.00,,2013-01-16 11:52:00,
2013-01-16 07:03:00,29.0,26.0,30.12,North,0,0.0,0.0,90,0.00,,,0.00,,2013-01-16 12:03:00,
2013-01-16 07:13:00,29.0,26.0,30.12,North,0,0.0,0.0,90,0.00,,,0.00,,2013-01-16 12:13:00,
2013-01-16 07:22:00,29.0,26.0,30.12,North,0,0.0,0.0,90,0.00,,,0.00,,2013-01-16 12:22:00,
2013-01-16 07:33:00,29.0,27.0,30.12,North,0,0.0,0.0,91,0.00,,,0.00,,2013-01-16 12:33:00,
2013-01-16 07:43:00,29.0,27.0,30.12,North,0,0.0,0.0,91,0.00,,,0.00,,2013-01-16 12:43:00,
2013-01-16 07:53:00,29.0,27.0,30.11,North,0,0.0,0.0,91,0.00,,,0.00,,2013-01-16 12:53:00,
2013-01-16 08:03:00,29.0,27.0,30.10,North,0,0.0,0.0,91,0.00,,,0.00,,2013-01-16 13:03:00,
2013-01-16 08:12:00,29.0,27.0,30.10,North,0,0.0,0.0,91,0.00,,,0.00,,2013-01-16 13:12:00,
2013-01-16 08:22:00,29.0,27.0,30.09,North,0,0.0,0.0,91,0.00,,,0.00,,2013-01-16 13:22:00,
2013-01-16 08:33:00,29.0,27.0,30.09,North,0,0.0,0.0,91,0.00,,,0.00,,2013-01-16 13:33:00,
2013-01-16 08:43:00,29.0,27.0,30.09,North,0,0.0,0.0,91,0.00,,,0.00,,2013-01-16 13:43:00,
2013-01-16 08:52:00,29.0,27.0,30.09,North,0,0.0,0.0,91,0.00,,,0.00,,2013-01-16 13:52:00,
2013-01-16 09:03:00,30.0,28.0,30.09,North,0,0.0,0.0,91,0.00,,,0.00,,2013-01-16 14:03:00,
2013-01-16 09:12:00,30.0,28.0,30.09,North,0,0.0,0.0,91,0.00,,,0.00,,2013-01-16 14:12:00,
2013-01-16 09:23:00,30.0,28.0,30.08,North,0,0.0,0.0,91,0.00,,,0.00,,2013-01-16 14:23:00,
2013-01-16 09:33:00,30.0,28.0,30.06,North,0,0.0,0.0,92,0.00,,,0.00,,2013-01-16 14:33:00,
2013-01-16 09:43:00,30.0,28.0,30.06,North,0,0.0,0.0,92,0.00,,,0.00,,2013-01-16 14:43:00,
2013-01-16 09:53:00,30.0,28.0,30.05,North,0,0.0,0.0,92,0.00,,,0.00,,2013-01-16 14:53:00,
2013-01-16 10:03:00,31.0,29.0,30.03,North,0,0.0,0.0,92,0.00,,,0.00,,2013-01-16 15:03:00,
2013-01-16 10:12:00,31.0,29.0,30.03,North,0,0.0,0.0,92,0.00,,,0.00,,2013-01-16 15:12:00,
2013-01-16 10:23:00,31.0,29.0,30.01,North,0,0.0,0.0,91,0.00,,,0.00,,2013-01-16 15:23:00,
2013-01-16 10:33:00,31.0,29.0,30.00,North,0,0.0,0.0,91,0.00,,,0.00,,2013-01-16 15:33:00,
2013-01-16 10:43:00,31.0,29.0,30.00,North,0,0.0,0.0,91,0.00,,,0.00,,2013-01-16 15:43:00,
2013-01-16 10:52:00,32.0,30.0,30.01,North,0,0.0,0.0,91,0.00,,,0.00,,2013-01-16 15:52:00,
2013-01-16 11:04:00,32.0,30.0,30.01,North,0,0.0,0.0,91,0.00,,,0.00,,2013-01-16 16:04:00,
2013-01-16 11:12:00,32.0,30.0,30.01,North,0,0.0,0.0,91,0.00,,,0.00,,2013-01-16 16:12:00,
2013-01-16 11:22:00,32.0,30.0,30.00,North,0,0.0,0.0,91,0.00,,,0.00,,2013-01-16 16:22:00,
2013-01-16 11:33:00,32.0,30.0,29.96,North,0,0.0,0.0,91,0.00,,,0.00,,2013-01-16 16:33:00,
2013-01-16 11:43:00,32.0,30.0,29.96,North,0,0.0,0.0,91,0.00,,,0.00,,2013-01-16 16:43:00,
2013-01-16 11:52:00,32.0,30.0,29.96,North,0,0.0,0.0,91,0.00,,,0.00,,2013-01-16 16:52:00,
2013-01-16 12:03:00,32.0,30.0,29.95,North,0,0.0,0.0,91,0.00,,,0.00,,2013-01-16 17:03:00,
2013-01-16 12:12:00,32.0,30.0,29.95,North,0,0.0,0.0,91,0.00,,,0.00,,2013-01-16 17:12:00,
2013-01-16 12:23:00,32.0,30.0,29.94,North,0,0.0,0.0,91,0.00,,,0.00,,2013-01-16 17:23:00,
2013-01-16 12:33:00,33.0,31.0,29.94,NE,39,0.0,1.0,91,0.00,,,0.00,,2013-01-16 17:33:00,
2013-01-16 12:44:00,33.0,31.0,29.94,NE,39,0.0,1.0,91,0.00,,,0.00,,2013-01-16 17:44:00,
2013-01-16 12:53:00,32.0,30.0,29.93,North,10,0.0,2.0,91,0.00,,,0.00,,2013-01-16 17:53:00,
2013-01-16 13:03:00,33.0,31.0,29.93,North,8,0.0,2.0,91,0.00,,,0.00,,2013-01-16 18:03:00,
2013-01-16 13:13:00,33.0,31.0,29.93,North,8,0.0,2.0,91,0.00,,,0.00,,2013-01-16 18:13:00,
2013-01-16 13:23:00,33.0,31.0,29.93,WNW,288,0.0,4.0,91,0.00,,,0.00,,2013-01-16 18:23:00,
2013-01-16 13:33:00,33.0,31.0,29.91,North,1,0.0,1.0,91,0.00,,,0.00,,2013-01-16 18:33:00,
2013-01-16 13:42:00,33.0,31.0,29.91,North,1,0.0,1.0,91,0.00,,,0.00,,2013-01-16 18:42:00,
2013-01-16 13:53:00,33.0,31.0,29.90,NNE,16,0.0,2.0,91,0.00,,,0.00,,2013-01-16 18:53:00,
2013-01-16 14:03:00,33.0,31.0,29.87,NNE,15,0.0,1.0,91,0.00,,,0.00,,2013-01-16 19:03:00,
2013-01-16 14:13:00,33.0,31.0,29.87,NNE,15,0.0,1.0,91,0.00,,,0.00,,2013-01-16 19:13:00,
2013-01-16 14:23:00,33.0,31.0,29.84,NNE,14,0.0,2.0,91,0.00,,,0.00,,2013-01-16 19:23:00,
2013-01-16 14:33:00,33.0,31.0,29.83,NNE,16,0.0,1.0,91,0.00,,,0.00,,2013-01-16 19:33:00,
2013-01-16 14:43:00,33.0,31.0,29.83,NNE,16,0.0,1.0,91,0.00,,,0.00,,2013-01-16 19:43:00,
2013-01-16 14:52:00,33.0,31.0,29.85,NE,36,0.0,2.0,91,0.00,,,0.00,,2013-01-16 19:52:00,
2013-01-16 15:03:00,33.0,31.0,29.86,NNE,27,0.0,3.0,91,0.00,,,0.00,,2013-01-16 20:03:00,
2013-01-16 15:12:00,33.0,31.0,29.86,NNE,27,0.0,3.0,91,0.00,,,0.00,,2013-01-16 20:12:00,
2013-01-16 15:23:00,33.0,31.0,29.85,NNW,343,0.0,3.0,91,0.00,,,0.00,,2013-01-16 20:23:00,
2013-01-16 15:33:00,33.0,31.0,29.85,NW,308,1.0,4.0,91,0.00,,,0.00,,2013-01-16 20:33:00,
2013-01-16 15:43:00,33.0,31.0,29.85,NW,308,1.0,4.0,91,0.00,,,0.00,,2013-01-16 20:43:00,
2013-01-16 15:53:00,33.0,31.0,29.85,NW,317,1.0,3.0,92,0.00,,,0.00,,2013-01-16 20:53:00,
2013-01-16 16:03:00,33.0,31.0,29.84,NW,314,0.0,2.0,92,0.00,,,0.00,,2013-01-16 21:03:00,
2013-01-16 16:12:00,33.0,31.0,29.84,NW,314,0.0,2.0,92,0.00,,,0.00,,2013-01-16 21:12:00,
2013-01-16 16:22:00,33.0,31.0,29.83,NW,312,0.0,3.0,92,0.00,,,0.00,,2013-01-16 21:22:00,
2013-01-16 16:33:00,33.0,31.0,29.83,NW,313,0.0,2.0,92,0.00,,,0.00,,2013-01-16 21:33:00,
2013-01-16 16:43:00,33.0,31.0,29.83,NW,313,0.0,2.0,92,0.00,,,0.00,,2013-01-16 21:43:00,
2013-01-16 16:52:00,33.0,31.0,29.84,WNW,303,0.0,4.0,92,0.00,,,0.00,,2013-01-16 21:52:00,
2013-01-16 17:03:00,32.0,30.0,29.83,WNW,299,0.0,3.0,92,0.01,,,0.01,,2013-01-16 22:03:00,
2013-01-16 17:12:00,32.0,30.0,29.83,WNW,299,0.0,3.0,92,0.01,,,0.01,,2013-01-16 22:12:00,
2013-01-16 17:23:00,32.0,30.0,29.83,WNW,299,0.0,1.0,92,0.01,,,0.01,,2013-01-16 22:23:00,
2013-01-16 17:33:00,32.0,30.0,29.82,North,0,0.0,0.0,92,0.01,,,0.01,,2013-01-16 22:33:00,
2013-01-16 17:43:00,32.0,30.0,29.82,North,0,0.0,0.0,92,0.01,,,0.01,,2013-01-16 22:43:00,
2013-01-16 17:52:00,32.0,30.0,29.82,North,0,0.0,0.0,92,0.01,,,0.01,,2013-01-16 22:52:00,
2013-01-16 18:03:00,32.0,30.0,29.83,WNW,296,0.0,1.0,92,0.00,,,0.01,,2013-01-16 23:03:00,
2013-01-16 18:12:00,32.0,30.0,29.83,WNW,296,0.0,1.0,92,0.00,,,0.01,,2013-01-16 23:12:00,
2013-01-16 18:23:00,32.0,30.0,29.82,WNW,295,0.0,1.0,92,0.01,,,0.02,,2013-01-16 23:23:00,
2013-01-16 18:32:00,32.0,30.0,29.83,NW,307,0.0,2.0,92,0.01,,,0.02,,2013-01-16 23:32:00,
2013-01-16 18:42:00,32.0,30.0,29.83,NW,307,0.0,2.0,92,0.01,,,0.02,,2013-01-16 23:42:00,
2013-01-16 18:52:00,32.0,30.0,29.82,WNW,296,0.0,1.0,92,0.01,,,0.02,,2013-01-16 23:52:00,
2013-01-16 19:02:00,32.0,30.0,29.80,WNW,297,0.0,1.0,93,0.01,,,0.02,,2013-01-17 00:02:00,
2013-01-16 19:12:00,32.0,30.0,29.80,WNW,297,0.0,1.0,93,0.01,,,0.02,,2013-01-17 00:12:00,
2013-01-16 19:22:00,32.0,30.0,29.80,North,0,0.0,0.0,93,0.00,,,0.02,,2013-01-17 00:22:00,
2013-01-16 19:32:00,32.0,30.0,29.80,North,0,0.0,0.0,92,0.00,,,0.02,,2013-01-17 00:32:00,
2013-01-16 19:42:00,32.0,30.0,29.80,North,0,0.0,0.0,92,0.00,,,0.02,,2013-01-17 00:42:00,
2013-01-16 19:52:00,32.0,30.0,29.81,North,0,0.0,0.0,93,0.00,,,0.02,,2013-01-17 00:52:00,
2013-01-16 20:02:00,32.0,30.0,29.82,WNW,299,1.0,3.0,93,0.00,,,0.02,,2013-01-17 01:02:00,
2013-01-16 20:12:00,32.0,30.0,29.82,WNW,299,1.0,3.0,93,0.00,,,0.02,,2013-01-17 01:12:00,
2013-01-16 20:22:00,32.0,30.0,29.82,WNW,291,0.0,1.0,93,0.00,,,0.02,,2013-01-17 01:22:00,
2013-01-16 20:33:00,32.0,30.0,29.81,North,0,0.0,0.0,93,0.00,,,0.02,,2013-01-17 01:33:00,
2013-01-16 20:42:00,32.0,30.0,29.81,North,0,0.0,0.0,93,0.00,,,0.02,,2013-01-17 01:42:00,
2013-01-16 20:52:00,32.0,30.0,29.81,North,0,0.0,0.0,93,0.00,,,0.02,,2013-01-17 01:52:00,
2013-01-16 21:02:00,32.0,30.0,29.81,North,0,0.0,0.0,93,0.00,,,0.02,,2013-01-17 02:02:00,
2013-01-16 21:12:00,32.0,30.0,29.81,North,0,0.0,0.0,93,0.00,,,0.02,,2013-01-17 02:12:00,
2013-01-16 21:22:00,32.0,30.0,29.81,North,0,0.0,0.0,93,0.00,,,0.02,,2013-01-17 02:22:00,
2013-01-16 21:32:00,32.0,30.0,29.80,North,0,0.0,0.0,93,0.00,,,0.02,,2013-01-17 02:32:00,
2013-01-16 21:42:00,32.0,30.0,29.80,North,0,0.0,0.0,93,0.00,,,0.02,,2013-01-17 02:42:00,
2013-01-16 21:52:00,32.0,30.0,29.80,North,0,0.0,0.0,93,0.00,,,0.02,,2013-01-17 02:52:00,
2013-01-16 22:03:00,31.0,29.0,29.80,North,0,0.0,0.0,93,0.00,,,0.02,,2013-01-17 03:03:00,
2013-01-16 22:12:00,31.0,29.0,29.80,North,0,0.0,0.0,93,0.00,,,0.02,,2013-01-17 03:12:00,
2013-01-16 22:22:00,31.0,29.0,29.80,West,261,0.0,1.0,93,0.00,,,0.02,,2013-01-17 03:22:00,
2013-01-16 22:33:00,32.0,30.0,29.80,SW,223,0.0,1.0,93,0.00,,,0.02,,2013-01-17 03:33:00,
2013-01-16 22:43:00,32.0,30.0,29.80,SW,223,0.0,1.0,93,0.00,,,0.02,,2013-01-17 03:43:00,
2013-01-16 22:52:00,32.0,30.0,29.80,SW,223,0.0,1.0,93,0.00,,,0.02,,2013-01-17 03:52:00,
2013-01-16 23:02:00,31.0,29.0,29.80,North,0,0.0,0.0,93,0.00,,,0.02,,2013-01-17 04:02:00,
2013-01-16 23:12:00,31.0,29.0,29.80,North,0,0.0,0.0,93,0.00,,,0.02,,2013-01-17 04:12:00,
2013-01-16 23:22:00,31.0,29.0,29.80,North,0,0.0,0.0,93,0.00,,,0.02,,2013-01-17 04:22:00,
2013-01-16 23:33:00,30.0,28.0,29.79,North,0,0.0,0.0,92,0.00,,,0.02,,2013-01-17 04:33:00,
2013-01-16 23:42:00,30.0,28.0,29.79,North,0,0.0,0.0,92,0.00,,,0.02,,2013-01-17 04:42:00,
2013-01-16 23:52:00,30.0,28.0,29.79,North,0,0.0,0.0,92,0.00,,,0.02,,2013-01-17 04:52:00,